[[{"header":{"parameterUnit":"m.s-1","parameterCategory":2,"la1":30.2991,"la2":30.254,"lo1":-89.0895,"lo2":-89.0444,"dy":0.0017,"dx":0.0017,"nx":28,"ny":28,"refTime":"2023-09-21T03:00:00:Z","depth":"0","parameterNumber":2,"parameterNumberName":"U-component_of_CURRENTS"},"data":[0,0,0,0,0,0,0,0,0,0,0,0,0,0,0,0,0,0,0,0,0,0,0,0,0,0,0,0,0,0,0,0,0,0,0,0,0,0,0,0,0,0,0,0,0,0,0,0,0,0,0,0,0,0,0,0,0,0,0.2757,0.2758,0,0.277,0.2769,0.2769,0.2728,0.2728,0.2727,0.2727,0.27,0.27,0.27,0,0,0,0,0,0,0,0,0,0,0,0,0,0.2718,0.2719,0.2757,0.2758,0.2759,0.277,0.2769,0.2769,0.2728,0.2728,0.2727,0.2726,0.27,0.27,0.2699,0,0,0,0,0,0,0,0,0,0,0,0,0,0.2727,0.2719,0.2757,0.2745,0.2744,0.277,0.2769,0.2769,0.2729,0.2728,0.2727,0.2726,0.27,0.27,0.2699,0.2716,0,0,0.2699,0.2699,0,0,0,0,0,0,0,0,0.2726,0.2727,0.2746,0.2746,0.2745,0.2753,0.2746,0.2752,0.2729,0.2727,0.2726,0.2725,0.2719,0.2717,0.2712,0.2715,0.2714,0.2699,0.2699,0.2699,0.2698,0,0,0,0,0,0,0,0.2726,0.2727,0.2755,0.2747,0.2747,0.2746,0.2746,0.2747,0.2722,0.2727,0.2726,0.2739,0.2717,0.2713,0.2711,0.2713,0.2699,0.2699,0.2698,0.2698,0.2785,0.2787,0,0,0,0,0,0,0.2738,0.2726,0.2755,0.2756,0.2741,0.2748,0.2747,0.2745,0.2723,0.2721,0.274,0.2737,0.2713,0.2712,0.271,0.2781,0.2699,0.2698,0.2698,0.2783,0.2786,0.2788,0,0,0,0,0,0,0.2737,0.274,0.2754,0.2748,0.275,0.275,0.2749,0.2746,0.275,0.2734,0.2729,0.2748,0.2713,0.2711,0.2731,0.2777,0.2698,0.2698,0.278,0.2783,0.2787,0.2888,0,0,0,0,0,0,0.2735,0.2739,0.2739,0.2748,0.2752,0.2785,0.275,0.2748,0.2762,0.2759,0.274,0.2735,0.2712,0.2732,0.2731,0.2775,0.2698,0.2777,0.2781,0.2786,0.2882,0.2895,0.2906,0,0,0,0,0,0.2734,0.2745,0.2738,0.2742,0.2751,0.2787,0.2788,0.2781,0.2764,0.2777,0.2767,0.2736,0.276,0.2733,0.2732,0.2777,0.2774,0.278,0.2785,0.2876,0.2892,0.2906,0,0,0,0,0,0,0.2728,0.2743,0.2735,0.2749,0.2773,0.2783,0.2797,0.2793,0.2794,0.2791,0.2762,0.2758,0.2798,0.2776,0.2747,0.2818,0.2765,0.2771,0.2835,0.285,0.2862,0.2852,0.2698,0,0,0,0,0,0.2729,0.2742,0.2759,0.2775,0.2786,0.2793,0.2804,0.2807,0.2815,0.2813,0.2804,0.2802,0.282,0.2823,0.283,0.2863,0.2857,0.2894,0.2907,0.2917,0.291,0.2956,0.2972,0.2806,0.2806,0.2806,0,0,0.2736,0.2746,0.2754,0.2777,0.2788,0.2817,0.2796,0.2829,0.2858,0.2813,0.2843,0.2845,0.284,0.2881,0.2897,0.2867,0.2966,0.2924,0.2933,0.292,0.2964,0.298,0.2994,0.281,0.2809,0.2809,0,0,0.2765,0.2763,0.2783,0.2806,0.2839,0.2848,0.2864,0.2885,0.2895,0.2934,0.2916,0.2943,0.2958,0.2968,0.2974,0.3057,0.3032,0.3068,0.3116,0.3163,0.3176,0.3188,0.3219,0.3233,0.307,0.307,0.307,0,0.2766,0.279,0.2799,0.2829,0.2852,0.2866,0.2899,0.2923,0.2951,0.2969,0.2957,0.3004,0.3001,0.3054,0.3086,0.3084,0.3099,0.306,0.3178,0.3189,0.3199,0.3228,0.3242,0.3076,0.3075,0.3074,0.3074,0,0.2815,0.2831,0.2852,0.2885,0.2915,0.2952,0.2988,0.3022,0.3038,0.3056,0.3115,0.312,0.3142,0.3163,0.3148,0.3227,0.3212,0.3192,0.3138,0.3222,0.3247,0.326,0.3083,0.3081,0.308,0.3078,0,0,0.2805,0.2868,0.287,0.2889,0.2945,0.2972,0.3038,0.309,0.3127,0.3167,0.3214,0.3262,0.326,0.3267,0.3265,0.3303,0.34,0.3282,0.3282,0.3307,0.3502,0.3405,0.3409,0.3406,0.3408,0.341,0.3496,0,0.2829,0.2882,0.2914,0.2968,0.2995,0.3037,0.3091,0.3147,0.3191,0.3243,0.3276,0.3316,0.3304,0.3319,0.3365,0.3383,0.3435,0.3378,0.342,0.3421,0.3319,0.342,0.3175,0.3223,0.3508,0.351,0.3512,0,0.2852,0.2883,0.2933,0.2995,0.301,0.3048,0.3126,0.3182,0.3267,0.3298,0.3354,0.3376,0.3442,0.3417,0.3507,0.3473,0.3501,0.3515,0.3518,0.3393,0.3346,0.3182,0.3235,0.3133,0.353,0.3529,0.3527,0,0.2824,0.2891,0.2926,0.2949,0.3026,0.3059,0.3106,0.3192,0.3239,0.3333,0.3365,0.3447,0.3474,0.3538,0.3575,0.3553,0.3665,0.3635,0.3579,0.3573,0.335,0.3319,0.3294,0.3716,0.3715,0.3715,0.3715,0,0.2826,0.2853,0.2911,0.2929,0.2975,0.3039,0.3099,0.3163,0.3249,0.3301,0.3381,0.3429,0.3506,0.3575,0.3613,0.3633,0.3703,0.3602,0.3596,0.338,0.3352,0.3238,0.3219,0.3718,0.3718,0.3717,0.3716,0,0.2795,0.2834,0.2873,0.294,0.2961,0.2996,0.3081,0.3123,0.3209,0.3283,0.3312,0.3426,0.3511,0.3586,0.3682,0.3653,0.3575,0.3693,0.3427,0.3386,0.3195,0.319,0.3069,0.2986,0.3633,0.3631,0.3629,0,0.2786,0.2801,0.2861,0.2879,0.2907,0.2962,0.2995,0.309,0.3133,0.3274,0.3299,0.3414,0.3471,0.3571,0.3555,0.3598,0.3525,0.3382,0.3288,0.3163,0.3155,0.3066,0.3,0.3048,0.3042,0.3037,0.3033,0,0.2772,0.279,0.2823,0.2848,0.2875,0.291,0.2966,0.299,0.3102,0.315,0.3229,0.3293,0.3371,0.3289,0.3334,0.3328,0.3163,0.3278,0.3215,0.2753,0.2586,0.2507,0.3023,0.2988,0.2993,0.2996,0.2998,0.3,0.2763,0.2776,0.281,0.2826,0.2844,0.2854,0.2835,0.289,0.2931,0.2952,0.3084,0.3067,0.3036,0.3051,0.3033,0.2795,0.2897,0.2649,0.2677,0.2617,0.2451,0.2869,0.2783,0.2786,0.2789,0.2792,0.2794,0,0.2764,0.2778,0.2788,0.2792,0.2759,0.2791,0.28,0.274,0.2718,0.2764,0.2773,0.2669,0.2563,0.2528,0.2325,0.2189,0.2096,0.2124,0.1933,0.192,0.233,0.2215,0.1919,0.1919,0.1919,0.1919,0.1919,0.1919,0.278,0.2782,0.2773,0.2709,0.2682,0.258,0.2546,0.2474,0.2454,0.2329,0.2227,0.2222,0.2207,0.2041,0.181,0.1748,0.1632,0.1505,0.1632,0.1898,0.1948,0.1996,0.1883,0.1522,0.1522,0.1049,0.1045,0.1043]},{"header":{"parameterUnit":"m.s-1","parameterCategory":2,"la1":30.2991,"la2":30.254,"lo1":-89.0895,"lo2":-89.0444,"dy":0.0017,"dx":0.0017,"nx":28,"ny":28,"refTime":"2023-09-21T03:00:00:Z","depth":"0","parameterNumber":3,"parameterNumberName":"V-component_of_CURRENTS"},"data":[0,0,0,0,0,0,0,0,0,0,0,0,0,0,0,0,0,0,0,0,0,0,0,0,0,0,0,0,0,0,0,0,0,0,0,0,0,0,0,0,0,0,0,0,0,0,0,0,0,0,0,0,0,0,0,0,0,0,0.0035,0.0035,0,-0.0003,-0.0003,-0.0003,-0.0017,-0.0017,-0.0017,-0.0017,-0.0081,-0.0083,-0.0084,0,0,0,0,0,0,0,0,0,0,0,0,0,0.0069,0.0069,0.0035,0.0035,0.0034,-0.0003,-0.0003,-0.0003,-0.0017,-0.0017,-0.0017,-0.0017,-0.008,-0.0082,-0.0084,0,0,0,0,0,0,0,0,0,0,0,0,0,0.0046,0.0069,0.0035,0.0022,0.0021,-0.0002,-0.0003,-0.0004,-0.0017,-0.0017,-0.0017,-0.0017,-0.008,-0.0082,-0.0085,-0.0103,0,0,-0.0093,-0.0094,0,0,0,0,0,0,0,0,0.0047,0.0045,0.0025,0.0023,0.0021,-0.0006,-0.0014,-0.0038,-0.0017,-0.0002,-0.0017,-0.0017,-0.0059,-0.0063,-0.0069,-0.0106,-0.0109,-0.0093,-0.0095,-0.0096,-0.0096,0,0,0,0,0,0,0,0.0049,0.0046,0.0021,0.0024,0.0022,0.0009,0.0007,-0.0019,-0.003,-0.0003,-0.0005,-0.001,-0.006,-0.0066,-0.0071,-0.011,-0.0093,-0.0095,-0.0097,-0.0098,-0.0183,-0.0184,0,0,0,0,0,0,0.0054,0.0048,0.0022,0.002,0.0034,0.0009,0.0006,0.0003,-0.003,-0.0035,-0.001,-0.001,-0.0062,-0.0068,-0.0073,-0.0112,-0.0096,-0.0098,-0.01,-0.0182,-0.0183,-0.0184,0,0,0,0,0,0,0.0054,0.0052,0.0023,0.0032,0.0028,0.0008,0.0006,0.0003,-0.0005,-0.0034,-0.004,-0.0014,-0.0062,-0.0069,-0.01,-0.0114,-0.0099,-0.0102,-0.0182,-0.0183,-0.0184,-0.018,0,0,0,0,0,0,0.0056,0.0052,0.0052,0.0033,0.0027,0.001,0.0005,0.0002,-0.0008,-0.0009,-0.004,-0.0046,-0.0063,-0.0096,-0.0103,-0.0117,-0.0104,-0.0181,-0.0182,-0.0183,-0.0179,-0.018,-0.0182,0,0,0,0,0,0.0057,0.0056,0.0052,0.0049,0.0028,0.001,0.0006,-0.0007,-0.0009,-0.0013,-0.0036,-0.0045,-0.0109,-0.0099,-0.0106,-0.0122,-0.018,-0.0182,-0.0183,-0.0178,-0.018,-0.0182,0,0,0,0,0,0,0.0066,0.0054,0.0049,0.0043,0.0028,0.0007,0.0003,-0.0007,-0.0027,-0.0028,-0.0054,-0.0062,-0.0095,-0.0109,-0.0097,-0.015,-0.0146,-0.0149,-0.014,-0.0142,-0.0143,-0.011,-0.0106,0,0,0,0,0,0.0069,0.0067,0.005,0.0043,0.004,0.0022,0.0014,0.0004,-0.0017,-0.0025,-0.0049,-0.0076,-0.0108,-0.0123,-0.0151,-0.0179,-0.0169,-0.0194,-0.0195,-0.0196,-0.0175,-0.0187,-0.0187,-0.0189,-0.0189,-0.0189,0,0,0.0069,0.0062,0.006,0.0045,0.0036,0.0031,0.0018,0.0007,-0.0004,-0.003,-0.0052,-0.0083,-0.0117,-0.015,-0.0166,-0.0162,-0.019,-0.0198,-0.0199,-0.0176,-0.0189,-0.0188,-0.0188,-0.019,-0.019,-0.019,0,0,0.0075,0.0066,0.0071,0.0061,0.0048,0.0035,0.0033,0.0012,-0.0003,-0.0029,-0.0055,-0.0088,-0.0132,-0.016,-0.0179,-0.0204,-0.0198,-0.0218,-0.0198,-0.0211,-0.021,-0.021,-0.0187,-0.0184,-0.0218,-0.0218,-0.0218,0,0.0081,0.0082,0.0067,0.007,0.0066,0.004,0.0044,0.0021,-0.0011,-0.0019,-0.0034,-0.0096,-0.0134,-0.0169,-0.0182,-0.0206,-0.0196,-0.0189,-0.0211,-0.021,-0.0209,-0.0186,-0.0183,-0.0218,-0.0218,-0.0218,-0.0218,0,0.0092,0.0092,0.0094,0.0092,0.0082,0.0079,0.0052,0.0038,0.0016,-0.0004,-0.0041,-0.0093,-0.012,-0.0154,-0.0177,-0.0198,-0.0185,-0.0212,-0.0201,-0.0208,-0.0184,-0.0181,-0.0218,-0.0218,-0.0218,-0.0218,0,0,0.0113,0.0106,0.0109,0.0118,0.0096,0.0096,0.0074,0.0058,0.0064,0.001,0.0012,-0.0069,-0.0085,-0.0108,-0.015,-0.017,-0.0171,-0.0184,-0.0185,-0.015,-0.0165,-0.0122,-0.0114,-0.02,-0.02,-0.02,-0.0146,0,0.0132,0.0151,0.0135,0.0148,0.0157,0.013,0.0122,0.01,0.0077,0.007,0.0007,-0.0013,-0.0074,-0.0083,-0.0116,-0.0156,-0.0163,-0.018,-0.0172,-0.0171,-0.0123,-0.011,-0.008,-0.0027,-0.0143,-0.0142,-0.0142,0,0.0153,0.0164,0.0187,0.0194,0.0198,0.02,0.0203,0.0192,0.0165,0.0149,0.0115,0.0073,0.0027,-0.002,-0.0076,-0.0081,-0.0113,-0.0145,-0.0144,-0.0097,-0.0122,-0.0042,-0.0017,-0.0105,-0.0137,-0.0137,-0.0138,0,0.0189,0.0201,0.0225,0.0226,0.0228,0.0238,0.0239,0.0223,0.0233,0.0209,0.022,0.0152,0.014,0.0071,0.0001,-0.0036,-0.0034,-0.0099,-0.0082,-0.0079,-0.0046,-0.0039,-0.0093,-0.012,-0.012,-0.012,-0.012,0,0.0215,0.0234,0.0251,0.0266,0.0306,0.029,0.033,0.0319,0.0325,0.0368,0.0273,0.0296,0.0162,0.0138,0.0054,0.0021,0.0008,-0.0054,-0.0061,-0.0043,-0.0037,-0.0106,-0.0163,-0.0118,-0.0118,-0.0119,-0.0119,0,0.0239,0.025,0.0283,0.0308,0.0325,0.0354,0.0396,0.0429,0.0421,0.0478,0.0475,0.0419,0.0397,0.029,0.0208,0.0114,0.0026,0.0051,0.0105,0.0103,0.0008,-0.0049,-0.007,-0.0103,0.0065,0.0066,0.0067,0,0.0249,0.0271,0.0323,0.036,0.0374,0.0422,0.0464,0.0477,0.0526,0.0569,0.0612,0.0596,0.0624,0.0521,0.0368,0.0264,0.0135,0.0187,0.0102,0.0033,-0.0038,-0.0089,-0.0121,0.015,0.0152,0.0153,0.0154,0,0.0262,0.0286,0.0318,0.0404,0.0461,0.0528,0.0596,0.0656,0.0702,0.0771,0.0867,0.0895,0.0802,0.0709,0.0542,0.0436,0.0134,0.0214,0.0113,0.0017,-0.0014,-0.0058,0.0103,0.0167,0.0166,0.0165,0.0164,0.0164,0.0272,0.0305,0.0366,0.0449,0.0528,0.0641,0.072,0.0819,0.0945,0.1089,0.1099,0.1199,0.0989,0.0773,0.0611,0.0302,0.0269,0.0176,0.0115,0.0071,0.0029,0.0247,0.0313,0.0313,0.0312,0.0312,0.0312,0,0.0288,0.0339,0.0411,0.0528,0.064,0.0671,0.0818,0.0919,0.1111,0.1266,0.1395,0.1384,0.1155,0.0847,0.0429,0.0223,0.011,0.0094,-0.0002,-0.0032,0.0143,0.0135,0.0201,0.0201,0.0201,0.0201,0.0201,0.0202,0.0296,0.0373,0.0424,0.0611,0.0707,0.0864,0.0963,0.112,0.1261,0.1489,0.1589,0.1628,0.1368,0.0637,0.0162,0.0059,-0.0109,-0.0115,-0.0209,-0.0128,-0.0127,-0.0126,-0.0149,-0.0143,-0.0143,-0.0362,-0.0364,-0.0366]}],[{"header":{"parameterUnit":"m.s-1","parameterCategory":2,"la1":30.2991,"la2":30.254,"lo1":-89.0895,"lo2":-89.0444,"dy":0.0017,"dx":0.0017,"nx":28,"ny":28,"refTime":"2023-09-21T03:00:00:Z","depth":"2","parameterNumber":2,"parameterNumberName":"U-component_of_CURRENTS"},"data":[0,0,0,0,0,0,0,0,0,0,0,0,0,0,0,0,0,0,0,0,0,0,0,0,0,0,0,0,0,0,0,0,0,0,0,0,0,0,0,0,0,0,0,0,0,0,0,0,0,0,0,0,0,0,0,0,0,0,0.197,0.197,0,0.1966,0.1966,0.1966,0.1984,0.1985,0.1986,0.1986,0.2015,0.2015,0.2015,0,0,0,0,0,0,0,0,0,0,0,0,0,0.1975,0.1975,0.197,0.197,0.197,0.1966,0.1966,0.1966,0.1984,0.1985,0.1986,0.1987,0.2015,0.2015,0.2015,0,0,0,0,0,0,0,0,0,0,0,0,0,0.1971,0.1975,0.197,0.198,0.1981,0.1966,0.1966,0.1966,0.1984,0.1985,0.1986,0.1987,0.2015,0.2015,0.2015,0.1997,0,0,0.2016,0.2016,0,0,0,0,0,0,0,0,0.1971,0.1971,0.1978,0.1979,0.198,0.1978,0.1979,0.1978,0.1984,0.1981,0.1986,0.1988,0.2006,0.2007,0.2001,0.1998,0.1999,0.2016,0.2016,0.2016,0.2016,0,0,0,0,0,0,0,0.1972,0.1971,0.1967,0.1978,0.198,0.1979,0.1979,0.1978,0.1988,0.1982,0.1983,0.1985,0.2006,0.2001,0.2002,0.2,0.2016,0.2016,0.2016,0.2016,0.2063,0.2064,0,0,0,0,0,0,0.1975,0.1971,0.1967,0.1967,0.198,0.1978,0.1978,0.1977,0.1987,0.199,0.1984,0.1986,0.2,0.2002,0.2004,0.2068,0.2016,0.2016,0.2016,0.2062,0.2063,0.2064,0,0,0,0,0,0,0.1975,0.1974,0.1968,0.197,0.197,0.1977,0.1975,0.1976,0.1996,0.1989,0.1992,0.2006,0.2001,0.2003,0.2026,0.2066,0.2016,0.2017,0.206,0.2062,0.2064,0.2142,0,0,0,0,0,0,0.1975,0.1974,0.1976,0.1971,0.197,0.1984,0.1974,0.1975,0.1994,0.1997,0.2008,0.201,0.2002,0.2026,0.2026,0.2065,0.2017,0.2059,0.2061,0.2063,0.2138,0.2146,0.2153,0,0,0,0,0,0.1975,0.1972,0.1976,0.1976,0.1972,0.1985,0.1985,0.1992,0.1995,0.2012,0.2016,0.2011,0.204,0.2027,0.2027,0.2067,0.2058,0.2061,0.2063,0.2134,0.2144,0.2152,0,0,0,0,0,0,0.1968,0.1973,0.1978,0.1975,0.1993,0.1989,0.1998,0.2005,0.2019,0.2022,0.2019,0.2022,0.2056,0.2046,0.2032,0.2085,0.205,0.2053,0.2104,0.2113,0.2121,0.2139,0.2017,0,0,0,0,0,0.1968,0.1981,0.1983,0.199,0.1994,0.2001,0.2008,0.2015,0.2024,0.2032,0.2037,0.2045,0.2061,0.2076,0.2077,0.2105,0.2107,0.2132,0.214,0.2146,0.216,0.218,0.2191,0.2072,0.2072,0.2072,0,0,0.1963,0.1976,0.1977,0.1992,0.2001,0.201,0.2009,0.2026,0.2036,0.2031,0.205,0.2067,0.2071,0.2104,0.212,0.2107,0.2184,0.2149,0.2155,0.2166,0.2184,0.2196,0.2206,0.2074,0.2074,0.2074,0,0,0.1968,0.1976,0.1985,0.1997,0.202,0.203,0.2043,0.2051,0.2058,0.2083,0.2083,0.2121,0.2141,0.2154,0.2164,0.221,0.2217,0.2225,0.2288,0.2307,0.2318,0.2326,0.2361,0.2372,0.2236,0.2237,0.2237,0,0.1967,0.1979,0.1992,0.2003,0.2014,0.2043,0.2052,0.2061,0.2079,0.2105,0.2102,0.2168,0.2162,0.2221,0.2243,0.2229,0.2254,0.2255,0.2319,0.2327,0.2335,0.2367,0.2379,0.2241,0.224,0.224,0.2239,0,0.1959,0.1985,0.1995,0.2024,0.2034,0.2057,0.2066,0.2097,0.2124,0.215,0.2218,0.2223,0.2267,0.2283,0.2282,0.2351,0.2356,0.232,0.2298,0.2352,0.2383,0.2393,0.2247,0.2245,0.2244,0.2243,0,0,0.1941,0.1983,0.1992,0.2009,0.2049,0.2054,0.2092,0.2145,0.219,0.2231,0.2288,0.2337,0.2368,0.238,0.2389,0.2427,0.2499,0.2418,0.2417,0.2458,0.2577,0.2488,0.2491,0.249,0.2492,0.2493,0.2583,0,0.1949,0.1972,0.1993,0.2027,0.204,0.2082,0.2121,0.217,0.2225,0.2285,0.2334,0.2388,0.2392,0.243,0.2468,0.249,0.253,0.248,0.2514,0.2515,0.2434,0.25,0.2275,0.2328,0.2593,0.2595,0.2596,0,0.1936,0.1965,0.1987,0.2046,0.2054,0.2085,0.2168,0.22,0.2303,0.2346,0.2432,0.2464,0.2541,0.2509,0.2603,0.2583,0.259,0.2607,0.2609,0.2506,0.2445,0.2313,0.2337,0.2613,0.2612,0.2611,0.2609,0,0.1911,0.1962,0.1987,0.1997,0.2062,0.21,0.2149,0.2245,0.2281,0.2392,0.2448,0.2539,0.2579,0.2624,0.2653,0.2644,0.274,0.2706,0.264,0.2634,0.2435,0.2408,0.2755,0.2755,0.2755,0.2755,0.2754,0,0.1911,0.1928,0.1985,0.1997,0.2041,0.2089,0.2158,0.2227,0.2326,0.2381,0.2476,0.2527,0.2614,0.2669,0.2687,0.2703,0.2757,0.2673,0.2654,0.2456,0.2431,0.2661,0.2648,0.2758,0.2757,0.2757,0.2756,0,0.187,0.1912,0.1937,0.2011,0.203,0.2058,0.2139,0.2196,0.2307,0.2375,0.2411,0.2539,0.2628,0.2697,0.2765,0.2731,0.2754,0.2732,0.2507,0.2459,0.2636,0.2627,0.2694,0.2691,0.2689,0.2688,0.2686,0,0.1846,0.1865,0.1919,0.1934,0.1972,0.2021,0.2068,0.2173,0.2227,0.2366,0.2395,0.252,0.2561,0.2654,0.2641,0.2667,0.2727,0.2451,0.2369,0.2657,0.2632,0.2626,0.262,0.2153,0.2147,0.2142,0.2139,0,0.1805,0.1832,0.1849,0.1888,0.1929,0.195,0.2025,0.2048,0.217,0.2233,0.2304,0.2348,0.2453,0.2376,0.2419,0.2397,0.2432,0.2356,0.2715,0.2192,0.215,0.2124,0.2135,0.2097,0.2102,0.2105,0.2107,0.2108,0.1766,0.1769,0.1803,0.1829,0.186,0.1871,0.1868,0.1925,0.1959,0.2017,0.2128,0.2135,0.2171,0.2132,0.207,0.2043,0.222,0.2107,0.212,0.2138,0.2049,0.2003,0.1909,0.1912,0.1915,0.1917,0.1919,0,0.1715,0.1727,0.1744,0.1762,0.1753,0.1809,0.1828,0.1793,0.1772,0.1839,0.1868,0.1729,0.1682,0.1746,0.1631,0.1623,0.1601,0.1559,0.1506,0.1548,0.1586,0.1466,0.1173,0.1171,0.1169,0.1167,0,0,0.1694,0.1675,0.1684,0.1645,0.1666,0.1633,0.1621,0.156,0.1558,0.1492,0.1486,0.1615,0.1681,0.1406,0.1365,0.1248,0.1389,0.1197,0.1796,0.1775,0.181,0.1904,0.1767,0,0,0,0,0]},{"header":{"parameterUnit":"m.s-1","parameterCategory":2,"la1":30.2991,"la2":30.254,"lo1":-89.0895,"lo2":-89.0444,"dy":0.0017,"dx":0.0017,"nx":28,"ny":28,"refTime":"2023-09-21T03:00:00:Z","depth":"2","parameterNumber":3,"parameterNumberName":"V-component_of_CURRENTS"},"data":[0,0,0,0,0,0,0,0,0,0,0,0,0,0,0,0,0,0,0,0,0,0,0,0,0,0,0,0,0,0,0,0,0,0,0,0,0,0,0,0,0,0,0,0,0,0,0,0,0,0,0,0,0,0,0,0,0,0,0.0152,0.0152,0,0.0129,0.0128,0.0128,0.0096,0.0095,0.0095,0.0094,0.0056,0.0055,0.0055,0,0,0,0,0,0,0,0,0,0,0,0,0,0.0143,0.0143,0.0152,0.0152,0.0152,0.0129,0.0128,0.0128,0.0096,0.0095,0.0095,0.0094,0.0056,0.0055,0.0055,0,0,0,0,0,0,0,0,0,0,0,0,0,0.0135,0.0144,0.0152,0.0134,0.0132,0.0129,0.0128,0.0128,0.0096,0.0095,0.0095,0.0094,0.0056,0.0055,0.0055,0.0062,0,0,0.0052,0.0051,0,0,0,0,0,0,0,0,0.0136,0.0135,0.0136,0.0135,0.0133,0.0115,0.0111,0.0106,0.0096,0.0108,0.0094,0.0094,0.0076,0.0073,0.0069,0.006,0.0059,0.0052,0.0051,0.0051,0.005,0,0,0,0,0,0,0,0.0136,0.0136,0.0142,0.0136,0.0134,0.0118,0.0116,0.011,0.0095,0.0107,0.0105,0.0105,0.0074,0.007,0.0068,0.0058,0.0052,0.0051,0.005,0.005,0.0047,0.0048,0,0,0,0,0,0,0.0144,0.0137,0.0142,0.0141,0.0134,0.0119,0.0117,0.0121,0.0095,0.0091,0.0105,0.0103,0.0072,0.0069,0.0066,0.0073,0.0051,0.005,0.0049,0.0047,0.0047,0.0048,0,0,0,0,0,0,0.0144,0.0145,0.0143,0.0139,0.0138,0.012,0.0125,0.0121,0.0112,0.0094,0.0089,0.01,0.0071,0.0067,0.0063,0.0071,0.0049,0.0049,0.0046,0.0047,0.0048,0.0087,0,0,0,0,0,0,0.0144,0.0145,0.0148,0.014,0.0138,0.0145,0.0125,0.0121,0.0113,0.011,0.0088,0.0084,0.007,0.0065,0.0062,0.0069,0.0048,0.0046,0.0047,0.0048,0.0085,0.0089,0.0092,0,0,0,0,0,0.0143,0.0156,0.0148,0.0149,0.0144,0.0145,0.0143,0.0127,0.0114,0.0115,0.0101,0.0084,0.0069,0.0065,0.0062,0.0069,0.0045,0.0046,0.0047,0.0084,0.0088,0.0092,0,0,0,0,0,0,0.0155,0.0153,0.0145,0.0156,0.0151,0.014,0.0143,0.0129,0.0118,0.0115,0.0092,0.0088,0.0088,0.0074,0.007,0.0071,0.0054,0.0054,0.0082,0.0086,0.009,0.0106,0.0047,0,0,0,0,0,0.016,0.0166,0.0161,0.0168,0.017,0.0155,0.0152,0.0142,0.0133,0.0127,0.0113,0.01,0.0091,0.0085,0.0078,0.0079,0.0066,0.0081,0.0084,0.0088,0.0099,0.0091,0.0095,0.0052,0.0052,0.0052,0,0,0.0169,0.0166,0.0171,0.017,0.0167,0.0181,0.0152,0.0154,0.0166,0.0126,0.0138,0.0114,0.0095,0.0097,0.0095,0.0085,0.009,0.0089,0.0092,0.0101,0.0093,0.0097,0.0101,0.0052,0.0052,0.0052,0,0,0.0194,0.0187,0.0203,0.0204,0.0201,0.0196,0.0198,0.019,0.0188,0.0192,0.0167,0.0153,0.0139,0.0131,0.0123,0.0144,0.0112,0.0131,0.016,0.0153,0.0156,0.0159,0.0136,0.0137,0.0131,0.0131,0.0131,0,0.0202,0.0222,0.0208,0.0224,0.0235,0.0207,0.0234,0.023,0.022,0.0224,0.0203,0.0182,0.0162,0.0165,0.0165,0.0154,0.0133,0.0145,0.0158,0.0161,0.0163,0.0139,0.0139,0.0133,0.0132,0.0132,0.0132,0,0.0248,0.0257,0.0269,0.0283,0.0291,0.0307,0.0306,0.0308,0.0295,0.0287,0.0285,0.0252,0.0238,0.0223,0.0197,0.0202,0.0176,0.0165,0.0148,0.017,0.0143,0.0142,0.0136,0.0135,0.0134,0.0134,0,0,0.028,0.0298,0.0301,0.0319,0.0326,0.0341,0.0362,0.0377,0.0392,0.0367,0.0384,0.0351,0.0318,0.0307,0.0268,0.025,0.0239,0.021,0.0209,0.019,0.0205,0.0181,0.0178,0.0223,0.0223,0.0224,0.0174,0,0.0319,0.0363,0.0364,0.0409,0.0436,0.0425,0.0452,0.0458,0.0449,0.0456,0.0416,0.0411,0.0355,0.0338,0.0315,0.0265,0.0242,0.0253,0.0185,0.0183,0.0161,0.0178,0.0205,0.0163,0.0174,0.0173,0.0173,0,0.0364,0.0388,0.0443,0.0477,0.0491,0.0513,0.0548,0.057,0.0566,0.0558,0.0534,0.0492,0.0462,0.041,0.034,0.0344,0.0279,0.0232,0.0229,0.0197,0.016,0.0145,0.0162,0.0172,0.0173,0.0173,0.0173,0,0.0401,0.0442,0.0491,0.0504,0.0541,0.0565,0.0585,0.0596,0.0629,0.0616,0.0626,0.0573,0.0555,0.0475,0.0367,0.035,0.0286,0.0257,0.0173,0.017,0.0177,0.0174,0.021,0.021,0.021,0.021,0.021,0,0.0443,0.048,0.051,0.0538,0.0602,0.061,0.0672,0.0679,0.0703,0.0752,0.0679,0.0692,0.0568,0.0508,0.04,0.0291,0.0314,0.0186,0.0163,0.0189,0.0188,0.0186,0.0184,0.0208,0.0208,0.0209,0.0209,0,0.0478,0.0497,0.0554,0.0599,0.0621,0.0668,0.0736,0.0775,0.0786,0.0846,0.0844,0.0789,0.071,0.0578,0.0451,0.0344,0.0236,0.0186,0.0216,0.0197,0.0111,0.0111,0.0091,0.009,0.0089,0.0088,0.0088,0,0.0506,0.0537,0.0601,0.0644,0.0667,0.0735,0.0784,0.0817,0.0866,0.091,0.0944,0.0877,0.0844,0.0643,0.0453,0.027,0.0235,0.015,0.0128,0.0122,0.0102,0.0104,0.0106,0.0144,0.0144,0.0144,0.0144,0,0.0561,0.0576,0.0623,0.0702,0.0761,0.0836,0.0906,0.096,0.1011,0.1054,0.1094,0.1067,0.0886,0.0704,0.0444,0.0317,0.0182,0.0141,0.0146,0.017,0.0169,0.0149,0.015,0.0143,0.0143,0.0143,0.0143,0.0143,0.0603,0.0638,0.0692,0.0769,0.0842,0.0927,0.0987,0.1059,0.1146,0.1205,0.119,0.1147,0.0953,0.0618,0.0411,0.018,0.0187,0.0088,0.009,0.0092,0.0107,0.0104,0.0068,0.0068,0.0068,0.0068,0.0067,0,0.0657,0.069,0.0758,0.0846,0.0921,0.0952,0.1064,0.1114,0.1207,0.125,0.1267,0.1068,0.0877,0.0648,0.0323,0.0124,0.0114,0.0044,0.0083,0.0086,0.0088,0.0103,0.0063,0.0062,0.0061,0.0061,0,0,0.0686,0.0752,0.0773,0.0894,0.0956,0.1049,0.1108,0.1182,0.1231,0.1252,0.1223,0.1178,0.093,0.0684,0.0434,0.025,0.0204,0.0203,0.0231,0.031,0.0314,0.0139,0.0169,0,0,0,0,0]}],[{"header":{"parameterUnit":"m.s-1","parameterCategory":2,"la1":30.2991,"la2":30.254,"lo1":-89.0895,"lo2":-89.0444,"dy":0.0017,"dx":0.0017,"nx":28,"ny":28,"refTime":"2023-09-21T03:00:00:Z","depth":"4","parameterNumber":2,"parameterNumberName":"U-component_of_CURRENTS"},"data":[0,0,0,0,0,0,0,0,0,0,0,0,0,0,0,0,0,0,0,0,0,0,0,0,0,0,0,0,0,0,0,0,0,0,0,0,0,0,0,0,0,0,0,0,0,0,0,0,0,0,0,0,0,0,0,0,0,0,0.1068,0.1068,0,0.1096,0.1097,0.1097,0.1138,0.1138,0.1139,0.114,0.1194,0.1195,0.1196,0,0,0,0,0,0,0,0,0,0,0,0,0,0.1048,0.1048,0.1068,0.1068,0.1069,0.1096,0.1097,0.1097,0.1138,0.1138,0.1139,0.114,0.1194,0.1195,0.1196,0,0,0,0,0,0,0,0,0,0,0,0,0,0.1064,0.1048,0.1068,0.1093,0.1095,0.1096,0.1097,0.1097,0.1137,0.1138,0.114,0.1141,0.1194,0.1195,0.1196,0.118,0,0,0.1199,0.12,0,0,0,0,0,0,0,0,0.1063,0.1065,0.1089,0.1091,0.1094,0.1115,0.111,0.1126,0.1137,0.1121,0.114,0.1141,0.117,0.1173,0.1175,0.1183,0.1185,0.12,0.12,0.1201,0.1201,0,0,0,0,0,0,0,0.1062,0.1064,0.1078,0.1089,0.1092,0.1102,0.1106,0.1113,0.1138,0.1122,0.1125,0.1129,0.1172,0.1173,0.1176,0.1186,0.12,0.1201,0.1201,0.1202,0.1273,0.1275,0,0,0,0,0,0,0.1058,0.1062,0.1078,0.1079,0.1082,0.1102,0.1106,0.1107,0.1138,0.1144,0.1128,0.1131,0.1171,0.1175,0.1178,0.1235,0.1201,0.1202,0.1202,0.1272,0.1274,0.1275,0,0,0,0,0,0,0.1058,0.1059,0.1076,0.1072,0.1075,0.1101,0.1102,0.1107,0.1135,0.1142,0.1149,0.1155,0.1172,0.1177,0.1212,0.1235,0.1202,0.1203,0.1271,0.1273,0.1274,0.1301,0,0,0,0,0,0,0.1057,0.1059,0.107,0.1072,0.1075,0.1093,0.1101,0.1106,0.1134,0.1139,0.1166,0.1171,0.1173,0.121,0.1213,0.1236,0.1204,0.1269,0.1272,0.1274,0.1298,0.1303,0.1308,0,0,0,0,0,0.1056,0.1062,0.107,0.1073,0.1086,0.1094,0.1097,0.1118,0.1134,0.1148,0.1173,0.1172,0.1227,0.1212,0.1215,0.1238,0.1268,0.1271,0.1274,0.1296,0.1302,0.1307,0,0,0,0,0,0,0.1056,0.1066,0.1076,0.1085,0.1098,0.1102,0.112,0.1131,0.1159,0.1174,0.1183,0.1189,0.123,0.1231,0.1214,0.1268,0.1249,0.1252,0.1265,0.1271,0.1276,0.1275,0.1205,0,0,0,0,0,0.1061,0.1073,0.108,0.1091,0.1101,0.1115,0.1126,0.1138,0.1157,0.1172,0.1192,0.1216,0.1238,0.1253,0.127,0.1294,0.1305,0.1314,0.1318,0.1322,0.1325,0.1358,0.1366,0.1284,0.1284,0.1284,0,0,0.1063,0.1072,0.1079,0.1093,0.1108,0.1117,0.1126,0.1148,0.1161,0.1172,0.1211,0.1234,0.1249,0.1281,0.1299,0.1288,0.1354,0.1326,0.1329,0.133,0.1362,0.137,0.1377,0.1286,0.1286,0.1285,0,0,0.1065,0.1085,0.1094,0.1107,0.1131,0.1137,0.1149,0.1168,0.1189,0.1221,0.1237,0.1276,0.1306,0.1321,0.1331,0.1371,0.1379,0.1383,0.1404,0.1436,0.1443,0.1449,0.1483,0.1492,0.1384,0.1384,0.1384,0,0.1073,0.1082,0.1099,0.111,0.1126,0.1148,0.116,0.1175,0.1206,0.1231,0.1242,0.1313,0.1323,0.1363,0.1378,0.1381,0.1403,0.1379,0.1442,0.1448,0.1453,0.1487,0.1496,0.1385,0.1385,0.1385,0.1385,0,0.1069,0.1092,0.1102,0.1124,0.1139,0.1158,0.1176,0.1206,0.1239,0.126,0.1324,0.1348,0.1395,0.1403,0.14,0.145,0.1455,0.1444,0.1424,0.1463,0.1496,0.1506,0.1388,0.1387,0.1386,0.1386,0,0,0.1058,0.1093,0.1103,0.1119,0.1153,0.116,0.1194,0.1231,0.1267,0.1311,0.1365,0.1404,0.144,0.1454,0.1467,0.1487,0.1544,0.1485,0.1486,0.1513,0.1627,0.1513,0.1512,0.1547,0.1549,0.155,0.1637,0,0.106,0.1083,0.1101,0.113,0.1145,0.1181,0.1209,0.1247,0.1294,0.135,0.1396,0.1452,0.1452,0.1489,0.1513,0.1539,0.1569,0.1522,0.159,0.1592,0.148,0.1518,0.1555,0.1644,0.1646,0.1648,0.1649,0,0.105,0.1072,0.1099,0.1142,0.1154,0.1178,0.1243,0.127,0.1348,0.139,0.1462,0.1502,0.1563,0.1549,0.1625,0.16,0.1621,0.1631,0.1634,0.1522,0.1494,0.1596,0.1666,0.1664,0.1663,0.1662,0.1661,0,0.1028,0.1071,0.1096,0.111,0.1158,0.1193,0.1229,0.1298,0.1336,0.1431,0.1481,0.1558,0.1615,0.1651,0.1685,0.1668,0.1754,0.1732,0.1653,0.1646,0.1711,0.1704,0.1784,0.1784,0.1784,0.1783,0.1783,0,0.1014,0.1036,0.1096,0.111,0.115,0.1192,0.1249,0.1299,0.1383,0.1429,0.1512,0.1558,0.1643,0.17,0.1714,0.1713,0.1789,0.1662,0.1658,0.1722,0.1715,0.1718,0.171,0.1787,0.1786,0.1785,0.1785,0,0.0975,0.1016,0.1048,0.1116,0.114,0.1172,0.1253,0.129,0.1381,0.1449,0.1486,0.159,0.1659,0.1726,0.1791,0.1745,0.1754,0.1736,0.1817,0.1815,0.1621,0.1613,0.1654,0.1651,0.1648,0.1646,0.1644,0,0.0951,0.0969,0.1044,0.1066,0.1104,0.1159,0.1193,0.1283,0.1321,0.1444,0.1467,0.1579,0.1635,0.1647,0.1714,0.1749,0.1724,0.1721,0.1647,0.1614,0.1607,0.1603,0.1599,0.1639,0.1638,0.1638,0.1637,0,0.0909,0.0951,0.0979,0.1028,0.1072,0.1096,0.116,0.1181,0.1278,0.1377,0.1415,0.1453,0.153,0.1577,0.1625,0.1637,0.1711,0.169,0.1696,0.1626,0.1597,0.1591,0.1591,0.1627,0.1628,0.1629,0.163,0,0.0884,0.0893,0.0942,0.0973,0.1015,0.1018,0.1059,0.1099,0.1147,0.1287,0.1294,0.1405,0.1508,0.152,0.1554,0.1568,0.1539,0.1475,0.149,0.1502,0.1409,0.1346,0.1301,0,0,0,0,0,0.0852,0.0853,0.0879,0.0898,0.0932,0.0959,0.1022,0.1066,0.1169,0.1163,0.1226,0.1284,0.1335,0.1391,0.1377,0.1492,0.1549,0.1467,0.1483,0.1572,0.1583,0.1486,0,0,0,0,0,0,0.0829,0.0852,0.0855,0.0824,0.0827,0.085,0.089,0.0961,0.0962,0.1077,0.1117,0.1201,0.128,0.134,0.1354,0.1372,0.1352,0.1542,0.1538,0.1565,0.1576,0.1585,0.1489,0,0,0,0,0]},{"header":{"parameterUnit":"m.s-1","parameterCategory":2,"la1":30.2991,"la2":30.254,"lo1":-89.0895,"lo2":-89.0444,"dy":0.0017,"dx":0.0017,"nx":28,"ny":28,"refTime":"2023-09-21T03:00:00:Z","depth":"4","parameterNumber":3,"parameterNumberName":"V-component_of_CURRENTS"},"data":[0,0,0,0,0,0,0,0,0,0,0,0,0,0,0,0,0,0,0,0,0,0,0,0,0,0,0,0,0,0,0,0,0,0,0,0,0,0,0,0,0,0,0,0,0,0,0,0,0,0,0,0,0,0,0,0,0,0,0.0197,0.0197,0,0.0193,0.0193,0.0193,0.0178,0.0177,0.0177,0.0177,0.0164,0.0164,0.0164,0,0,0,0,0,0,0,0,0,0,0,0,0,0.0177,0.0178,0.0197,0.0197,0.0197,0.0193,0.0193,0.0193,0.0178,0.0177,0.0177,0.0176,0.0164,0.0164,0.0164,0,0,0,0,0,0,0,0,0,0,0,0,0,0.0181,0.0178,0.0197,0.0189,0.0188,0.0193,0.0193,0.0193,0.0178,0.0177,0.0177,0.0176,0.0164,0.0164,0.0164,0.0173,0,0,0.0164,0.0164,0,0,0,0,0,0,0,0,0.018,0.0181,0.019,0.0189,0.0189,0.0186,0.0182,0.0186,0.0178,0.0181,0.0177,0.0176,0.0171,0.017,0.017,0.0173,0.0172,0.0164,0.0164,0.0164,0.0164,0,0,0,0,0,0,0,0.018,0.0181,0.0195,0.019,0.0189,0.0181,0.0181,0.0182,0.0179,0.0181,0.018,0.018,0.017,0.0171,0.017,0.0172,0.0164,0.0164,0.0164,0.0164,0.0186,0.0186,0,0,0,0,0,0,0.0183,0.0181,0.0195,0.0195,0.0184,0.0182,0.0182,0.0187,0.0179,0.0177,0.0181,0.018,0.0171,0.017,0.0169,0.0191,0.0164,0.0164,0.0164,0.0185,0.0186,0.0186,0,0,0,0,0,0,0.0183,0.0184,0.0195,0.0188,0.0189,0.0183,0.0188,0.0187,0.0187,0.0179,0.0177,0.0182,0.017,0.017,0.0176,0.019,0.0164,0.0164,0.0184,0.0185,0.0186,0.0228,0,0,0,0,0,0,0.0182,0.0184,0.0189,0.0188,0.0189,0.0203,0.0189,0.0187,0.0188,0.0186,0.0179,0.0177,0.017,0.0176,0.0176,0.019,0.0164,0.0183,0.0185,0.0186,0.0226,0.023,0.0234,0,0,0,0,0,0.0181,0.0193,0.0189,0.0191,0.0196,0.0204,0.0204,0.0197,0.0188,0.0194,0.0189,0.0177,0.0183,0.0177,0.0177,0.0191,0.0183,0.0184,0.0186,0.0224,0.023,0.0234,0,0,0,0,0,0,0.0189,0.0193,0.0189,0.0201,0.0203,0.0201,0.0208,0.02,0.0201,0.0201,0.0187,0.0186,0.0196,0.0188,0.0181,0.02,0.0181,0.0182,0.021,0.0215,0.0219,0.0226,0.0164,0,0,0,0,0,0.0193,0.0202,0.0202,0.0213,0.0216,0.0211,0.0213,0.0211,0.021,0.021,0.0205,0.0201,0.0202,0.0204,0.0203,0.0216,0.0194,0.0223,0.0227,0.0231,0.0236,0.0214,0.0217,0.0191,0.0191,0.0191,0,0,0.0201,0.0203,0.0209,0.0216,0.0218,0.0231,0.0212,0.0221,0.0234,0.0209,0.0226,0.0216,0.0208,0.0222,0.0226,0.0217,0.0226,0.0233,0.0236,0.0239,0.0216,0.0218,0.022,0.0192,0.0192,0.0191,0,0,0.0223,0.0223,0.0238,0.0243,0.0248,0.0248,0.0252,0.0254,0.0255,0.0269,0.0254,0.0253,0.0257,0.0254,0.0253,0.0279,0.0248,0.0277,0.0306,0.0284,0.0286,0.0288,0.0259,0.0258,0.028,0.028,0.028,0,0.023,0.025,0.0244,0.0259,0.0269,0.0258,0.028,0.0283,0.0286,0.0292,0.0282,0.0284,0.0275,0.0287,0.0295,0.0289,0.0266,0.0288,0.0289,0.029,0.0291,0.0262,0.0259,0.0282,0.0282,0.0282,0.0282,0,0.0265,0.0279,0.029,0.0306,0.0316,0.0334,0.0338,0.0348,0.0347,0.0345,0.0356,0.0342,0.0341,0.0338,0.0326,0.033,0.0308,0.0295,0.0277,0.0296,0.0264,0.0261,0.0286,0.0285,0.0284,0.0284,0,0,0.0285,0.0309,0.0313,0.033,0.0344,0.0359,0.0383,0.0401,0.0417,0.0413,0.0428,0.0424,0.0405,0.0402,0.0382,0.0365,0.0347,0.0335,0.0333,0.0306,0.0291,0.0263,0.0257,0.0331,0.033,0.033,0.0265,0,0.0314,0.0351,0.0357,0.0399,0.0421,0.0424,0.0449,0.0462,0.0465,0.0475,0.0456,0.0461,0.0433,0.0431,0.041,0.0363,0.0341,0.0365,0.0277,0.0274,0.0247,0.0254,0.033,0.0263,0.0262,0.0261,0.0261,0,0.0345,0.0367,0.0413,0.045,0.0461,0.0486,0.0523,0.0545,0.055,0.0551,0.0543,0.0518,0.0498,0.0468,0.0399,0.0413,0.0358,0.0318,0.0314,0.0272,0.0241,0.024,0.0255,0.0255,0.0256,0.0256,0.0257,0,0.0365,0.0406,0.0447,0.046,0.05,0.0526,0.055,0.0569,0.0596,0.0596,0.0604,0.0566,0.0552,0.0484,0.0397,0.0395,0.0309,0.0296,0.0219,0.0216,0.0241,0.024,0.0245,0.0246,0.0246,0.0246,0.0246,0,0.0391,0.0425,0.0462,0.0485,0.0542,0.0558,0.0613,0.0629,0.0653,0.0683,0.0644,0.0645,0.0554,0.0492,0.0408,0.0302,0.0315,0.0224,0.0199,0.026,0.0262,0.0238,0.0238,0.0243,0.0244,0.0244,0.0245,0,0.0409,0.0433,0.0483,0.0531,0.0554,0.0596,0.0661,0.0695,0.0711,0.0747,0.0749,0.0703,0.0619,0.0518,0.04,0.032,0.022,0.0178,0.0247,0.0227,0.0136,0.0139,0.0087,0.0086,0.0085,0.0084,0.0083,0,0.0423,0.0451,0.0516,0.0552,0.0579,0.0642,0.0686,0.0725,0.076,0.0779,0.0794,0.0728,0.0679,0.0494,0.0381,0.0215,0.0189,0.0128,0.0136,0.014,0.0121,0.0126,0.0131,0.0081,0.008,0.008,0.008,0,0.045,0.0474,0.0513,0.0581,0.0637,0.0702,0.0763,0.0792,0.0833,0.0846,0.0822,0.0728,0.063,0.0487,0.0354,0.0237,0.0163,0.0114,0.0116,0.0123,0.0131,0.0115,0.0121,0.0075,0.0076,0.0076,0.0077,0,0.0471,0.0499,0.0547,0.0608,0.0679,0.0741,0.0773,0.0808,0.0844,0.0858,0.0843,0.0742,0.0685,0.0497,0.0378,0.0256,0.0223,0.0173,0.0172,0.0175,0.0217,0.0241,0.0198,0,0,0,0,0,0.0486,0.0516,0.057,0.0634,0.0702,0.0743,0.0817,0.0842,0.0874,0.086,0.0855,0.0761,0.058,0.0506,0.0379,0.035,0.0199,0.0194,0.0141,0.0051,0.0056,0.0088,0,0,0,0,0,0,0.0496,0.0547,0.0566,0.0644,0.0687,0.0766,0.0813,0.0835,0.0828,0.0838,0.0748,0.0709,0.0539,0.0651,0.0369,0.0333,0.0276,0.0117,0.0113,0.0048,0.0053,0.0057,0.0091,0,0,0,0,0]}]]